Wetterdaten: Freitag, 08.01.2010
Datum Zeit Temp. A. Feuchte A. Luftdruck Regen Wind Richtung Richtung Sonnenschein UV Solar Windben
08.01.2010 00:00 -3,1 C 89 % 1015,6 hPa 0,0 mm 0,0 km/h (0 Bft) W-SW 247 0 min 0 UV-I 0 W/m 3,2 km/h (1 Bft)
08.01.2010 00:10 -3,1 C 89 % 1015,7 hPa 0,0 mm 0,0 km/h (0 Bft) W-SW 247 0 min 0 UV-I 0 W/m 3,2 km/h (1 Bft)
08.01.2010 00:20 -3,1 C 89 % 1015,7 hPa 0,0 mm 0,0 km/h (0 Bft) N 0 0 min 0 UV-I 0 W/m 0,0 km/h (0 Bft)
08.01.2010 00:30 -3,1 C 89 % 1015,7 hPa 0,0 mm 0,0 km/h (0 Bft) N 0 0 min 0 UV-I 0 W/m 0,0 km/h (0 Bft)
08.01.2010 00:40 -3,1 C 89 % 1015,7 hPa 0,0 mm 0,0 km/h (0 Bft) N 0 0 min 0 UV-I 0 W/m 0,0 km/h (0 Bft)
08.01.2010 00:50 -3,1 C 89 % 1015,8 hPa 0,0 mm 0,0 km/h (0 Bft) N 0 0 min 0 UV-I 0 W/m 0,0 km/h (0 Bft)
08.01.2010 01:00 -3,1 C 89 % 1015,8 hPa 0,0 mm 0,0 km/h (0 Bft) W-SW 247 0 min 0 UV-I 0 W/m 1,6 km/h (1 Bft)
08.01.2010 01:10 -3,1 C 89 % 1015,8 hPa 0,0 mm 0,0 km/h (0 Bft) W-SW 247 0 min 0 UV-I 0 W/m 1,6 km/h (1 Bft)
08.01.2010 01:20 -3,1 C 89 % 1015,9 hPa 0,0 mm 0,0 km/h (0 Bft) N 0 0 min 0 UV-I 0 W/m 0,0 km/h (0 Bft)
08.01.2010 01:30 -3,1 C 89 % 1015,9 hPa 0,0 mm 0,0 km/h (0 Bft) N 0 0 min 0 UV-I 0 W/m 0,0 km/h (0 Bft)
08.01.2010 01:40 -3,1 C 89 % 1016,1 hPa 0,0 mm 0,0 km/h (0 Bft) W-SW 247 0 min 0 UV-I 0 W/m 1,6 km/h (1 Bft)
08.01.2010 01:50 -3,1 C 89 % 1016,1 hPa 0,0 mm 0,0 km/h (0 Bft) W-SW 247 0 min 0 UV-I 0 W/m 1,6 km/h (1 Bft)
08.01.2010 02:00 -3,1 C 89 % 1016,2 hPa 0,0 mm 0,0 km/h (0 Bft) N 0 0 min 0 UV-I 0 W/m 0,0 km/h (0 Bft)
08.01.2010 02:10 -3,1 C 89 % 1016,3 hPa 0,0 mm 0,0 km/h (0 Bft) N 0 0 min 0 UV-I 0 W/m 0,0 km/h (0 Bft)
08.01.2010 02:20 -3,1 C 89 % 1016,3 hPa 0,0 mm 0,0 km/h (0 Bft) W-SW 247 0 min 0 UV-I 0 W/m 1,6 km/h (1 Bft)
08.01.2010 02:30 -3,1 C 89 % 1016,4 hPa 0,0 mm 0,0 km/h (0 Bft) W-SW 247 0 min 0 UV-I 0 W/m 1,6 km/h (1 Bft)
08.01.2010 02:40 -3,2 C 89 % 1016,5 hPa 0,0 mm 0,0 km/h (0 Bft) W-SW 247 0 min 0 UV-I 0 W/m 3,2 km/h (1 Bft)
08.01.2010 02:50 -3,2 C 89 % 1016,7 hPa 0,0 mm 0,0 km/h (0 Bft) W-SW 247 0 min 0 UV-I 0 W/m 1,6 km/h (1 Bft)
08.01.2010 03:00 -3,2 C 89 % 1016,7 hPa 0,0 mm 1,6 km/h (1 Bft) W-SW 247 0 min 0 UV-I 0 W/m 3,2 km/h (1 Bft)
08.01.2010 03:10 -3,3 C 89 % 1016,9 hPa 0,0 mm 0,0 km/h (0 Bft) W-SW 247 0 min 0 UV-I 0 W/m 1,6 km/h (1 Bft)
08.01.2010 03:20 -3,4 C 89 % 1017,0 hPa 0,0 mm 0,0 km/h (0 Bft) N 0 0 min 0 UV-I 0 W/m 0,0 km/h (0 Bft)
08.01.2010 03:30 -3,5 C 89 % 1017,0 hPa 0,0 mm 0,0 km/h (0 Bft) W-SW 247 0 min 0 UV-I 0 W/m 1,6 km/h (1 Bft)
08.01.2010 03:40 -3,6 C 89 % 1017,0 hPa 0,0 mm 0,0 km/h (0 Bft) W-SW 247 0 min 0 UV-I 0 W/m 1,6 km/h (1 Bft)
08.01.2010 03:50 -3,6 C 89 % 1017,1 hPa 0,0 mm 0,0 km/h (0 Bft) N 0 0 min 0 UV-I 0 W/m 0,0 km/h (0 Bft)
08.01.2010 04:00 -3,7 C 89 % 1017,2 hPa 0,0 mm 0,0 km/h (0 Bft) N 0 0 min 0 UV-I 0 W/m 0,0 km/h (0 Bft)
08.01.2010 04:10 -3,7 C 89 % 1017,3 hPa 0,0 mm 0,0 km/h (0 Bft) N 0 0 min 0 UV-I 0 W/m 0,0 km/h (0 Bft)
08.01.2010 04:20 -3,7 C 89 % 1017,4 hPa 0,0 mm 0,0 km/h (0 Bft) N 0 0 min 0 UV-I 0 W/m 0,0 km/h (0 Bft)
08.01.2010 04:30 -3,7 C 89 % 1017,4 hPa 0,0 mm 0,0 km/h (0 Bft) W-SW 247 0 min 0 UV-I 0 W/m 3,2 km/h (1 Bft)
08.01.2010 04:40 -3,7 C 89 % 1017,5 hPa 0,0 mm 0,0 km/h (0 Bft) N 0 0 min 0 UV-I 0 W/m 0,0 km/h (0 Bft)
08.01.2010 04:50 -3,7 C 89 % 1017,4 hPa 0,0 mm 0,0 km/h (0 Bft) N 0 0 min 0 UV-I 0 W/m 0,0 km/h (0 Bft)
08.01.2010 05:00 -3,7 C 89 % 1017,5 hPa 0,0 mm 0,0 km/h (0 Bft) W-SW 247 0 min 0 UV-I 0 W/m 1,6 km/h (1 Bft)
08.01.2010 05:10 -3,7 C 89 % 1017,4 hPa 0,0 mm 0,0 km/h (0 Bft) N 0 0 min 0 UV-I 0 W/m 0,0 km/h (0 Bft)
08.01.2010 05:20 -3,7 C 89 % 1017,4 hPa 0,0 mm 0,0 km/h (0 Bft) W-SW 247 0 min 0 UV-I 0 W/m 1,6 km/h (1 Bft)
08.01.2010 05:30 -3,7 C 89 % 1017,4 hPa 0,0 mm 0,0 km/h (0 Bft) W-SW 247 0 min 0 UV-I 0 W/m 3,2 km/h (1 Bft)
08.01.2010 05:40 -3,7 C 89 % 1017,4 hPa 0,0 mm 0,0 km/h (0 Bft) W-SW 247 0 min 0 UV-I 0 W/m 3,2 km/h (1 Bft)
08.01.2010 05:50 -3,7 C 89 % 1017,5 hPa 0,0 mm 0,0 km/h (0 Bft) W-SW 247 0 min 0 UV-I 0 W/m 3,2 km/h (1 Bft)
08.01.2010 06:00 -3,7 C 89 % 1017,4 hPa 0,0 mm 0,0 km/h (0 Bft) W 270 0 min 0 UV-I 0 W/m 1,6 km/h (1 Bft)
08.01.2010 06:10 -3,7 C 89 % 1017,5 hPa 0,0 mm 0,0 km/h (0 Bft) W 270 0 min 0 UV-I 0 W/m 1,6 km/h (1 Bft)
08.01.2010 06:20 -3,7 C 89 % 1017,5 hPa 0,0 mm 1,6 km/h (1 Bft) W-NW 292 0 min 0 UV-I 0 W/m 4,8 km/h (1 Bft)
08.01.2010 06:30 -3,6 C 89 % 1017,6 hPa 0,0 mm 0,0 km/h (0 Bft) N-NW 337 0 min 0 UV-I 0 W/m 3,2 km/h (1 Bft)
08.01.2010 06:40 -3,6 C 89 % 1017,7 hPa 0,0 mm 0,0 km/h (0 Bft) N-NW 337 0 min 0 UV-I 0 W/m 4,8 km/h (1 Bft)
08.01.2010 06:50 -3,6 C 89 % 1017,7 hPa 0,0 mm 1,6 km/h (1 Bft) N 360 0 min 0 UV-I 0 W/m 3,2 km/h (1 Bft)
08.01.2010 07:00 -3,5 C 89 % 1017,8 hPa 0,0 mm 0,0 km/h (0 Bft) N 360 0 min 0 UV-I 0 W/m 1,6 km/h (1 Bft)
08.01.2010 07:10 -3,4 C 89 % 1017,9 hPa 0,0 mm 0,0 km/h (0 Bft) N 360 0 min 0 UV-I 0 W/m 3,2 km/h (1 Bft)
08.01.2010 07:20 -3,4 C 89 % 1018,0 hPa 0,0 mm 1,6 km/h (1 Bft) N 360 0 min 0 UV-I 0 W/m 3,2 km/h (1 Bft)
08.01.2010 07:30 -3,4 C 89 % 1018,0 hPa 0,0 mm 0,0 km/h (0 Bft) N-NO 22 0 min 0 UV-I 0 W/m 3,2 km/h (1 Bft)
08.01.2010 07:40 -3,5 C 89 % 1018,1 hPa 0,0 mm 0,0 km/h (0 Bft) N-NO 22 0 min 0 UV-I 0 W/m 4,8 km/h (1 Bft)
08.01.2010 07:50 -3,6 C 89 % 1018,1 hPa 0,0 mm 0,0 km/h (0 Bft) N-NO 22 0 min 0 UV-I 0 W/m 3,2 km/h (1 Bft)
08.01.2010 08:00 -3,8 C 89 % 1018,3 hPa 0,0 mm 0,0 km/h (0 Bft) NO 34 0 min 0 UV-I 0 W/m 0,0 km/h (0 Bft)
08.01.2010 08:10 -3,8 C 89 % 1018,3 hPa 0,0 mm 1,6 km/h (1 Bft) NO 45 0 min 0 UV-I 0 W/m 4,8 km/h (1 Bft)
08.01.2010 08:20 -4,1 C 88 % 1018,4 hPa 0,0 mm 1,6 km/h (1 Bft) N-NO 22 0 min 0 UV-I 0 W/m 6,4 km/h (2 Bft)
08.01.2010 08:30 -4,3 C 88 % 1018,5 hPa 0,0 mm 0,0 km/h (0 Bft) N-NO 22 0 min 0 UV-I 0 W/m 3,2 km/h (1 Bft)
08.01.2010 08:40 -4,5 C 88 % 1018,5 hPa 0,0 mm 0,0 km/h (0 Bft) N-NO 22 0 min 0 UV-I 0 W/m 3,2 km/h (1 Bft)
08.01.2010 08:50 -4,7 C 88 % 1018,7 hPa 0,0 mm 0,0 km/h (0 Bft) N-NO 22 0 min 0 UV-I 0 W/m 3,2 km/h (1 Bft)
08.01.2010 09:00 -4,9 C 88 % 1018,8 hPa 0,0 mm 0,0 km/h (0 Bft) N-NO 22 0 min 0 UV-I 0 W/m 3,2 km/h (1 Bft)
08.01.2010 09:10 -5,1 C 88 % 1019,0 hPa 0,0 mm 0,0 km/h (0 Bft) N-NO 22 0 min 0 UV-I 5 W/m 3,2 km/h (1 Bft)
08.01.2010 09:20 -5,2 C 88 % 1019,0 hPa 0,0 mm 0,0 km/h (0 Bft) N-NO 22 0 min 0 UV-I 7 W/m 3,2 km/h (1 Bft)
08.01.2010 09:30 -5,2 C 88 % 1019,0 hPa 0,0 mm 0,0 km/h (0 Bft) N-NO 22 0 min 0 UV-I 9 W/m 4,8 km/h (1 Bft)
08.01.2010 09:40 -5,2 C 88 % 1019,2 hPa 0,0 mm 1,6 km/h (1 Bft) N-NO 22 0 min 0 UV-I 14 W/m 6,4 km/h (2 Bft)
08.01.2010 09:50 -5,1 C 89 % 1019,2 hPa 0,0 mm 1,6 km/h (1 Bft) N-NO 22 0 min 0 UV-I 16 W/m 4,8 km/h (1 Bft)
08.01.2010 10:00 -4,9 C 89 % 1019,2 hPa 0,0 mm 0,0 km/h (0 Bft) N-NO 22 0 min 0 UV-I 19 W/m 3,2 km/h (1 Bft)
08.01.2010 10:10 -4,8 C 89 % 1019,1 hPa 0,0 mm 1,6 km/h (1 Bft) N-NO 22 0 min 0 UV-I 42 W/m 6,4 km/h (2 Bft)
08.01.2010 10:20 -4,7 C 89 % 1019,1 hPa 0,0 mm 3,2 km/h (1 Bft) N-NO 22 0 min 0 UV-I 47 W/m 8,0 km/h (2 Bft)
08.01.2010 10:30 -4,6 C 89 % 1019,2 hPa 0,0 mm 1,6 km/h (1 Bft) N-NO 22 0 min 0 UV-I 46 W/m 4,8 km/h (1 Bft)
08.01.2010 10:40 -4,5 C 89 % 1019,3 hPa 0,0 mm 1,6 km/h (1 Bft) N-NO 22 0 min 0 UV-I 40 W/m 4,8 km/h (1 Bft)
08.01.2010 10:50 -4,4 C 89 % 1019,4 hPa 0,0 mm 1,6 km/h (1 Bft) N-NO 22 0 min 0 UV-I 46 W/m 6,4 km/h (2 Bft)
08.01.2010 11:00 -4,4 C 89 % 1019,4 hPa 0,0 mm 1,6 km/h (1 Bft) N 360 0 min 0 UV-I 63 W/m 9,7 km/h (2 Bft)
08.01.2010 11:10 -4,4 C 89 % 1019,4 hPa 0,0 mm 1,6 km/h (1 Bft) N 360 0 min 0 UV-I 84 W/m 8,0 km/h (2 Bft)
08.01.2010 11:20 -4,3 C 89 % 1019,4 hPa 0,0 mm 3,2 km/h (1 Bft) O-NO 67 0 min 0 UV-I 86 W/m 9,7 km/h (2 Bft)
08.01.2010 11:30 -4,1 C 89 % 1019,4 hPa 0,0 mm 1,6 km/h (1 Bft) O 90 0 min 0 UV-I 88 W/m 9,7 km/h (2 Bft)
08.01.2010 11:40 -3,9 C 89 % 1019,4 hPa 0,0 mm 3,2 km/h (1 Bft) NO 45 0 min 0 UV-I 100 W/m 9,7 km/h (2 Bft)
08.01.2010 11:50 -3,8 C 89 % 1019,3 hPa 0,0 mm 3,2 km/h (1 Bft) O-NO 67 0 min 0 UV-I 116 W/m 9,7 km/h (2 Bft)
08.01.2010 12:00 -3,7 C 88 % 1019,3 hPa 0,0 mm 4,8 km/h (1 Bft) NO 45 0 min 0 UV-I 90 W/m 19,3 km/h (3 Bft)
08.01.2010 12:10 -3,6 C 88 % 1019,3 hPa 0,0 mm 3,2 km/h (1 Bft) O 90 0 min 0 UV-I 84 W/m 9,7 km/h (2 Bft)
08.01.2010 12:20 -3,6 C 88 % 1019,2 hPa 0,0 mm 4,8 km/h (1 Bft) O-NO 67 10 min 1 UV-I 158 W/m 11,3 km/h (2 Bft)
08.01.2010 12:30 -3,4 C 87 % 1019,3 hPa 0,0 mm 3,2 km/h (1 Bft) O-NO 67 10 min 1 UV-I 178 W/m 11,3 km/h (2 Bft)
08.01.2010 12:40 -3,2 C 87 % 1019,1 hPa 0,0 mm 3,2 km/h (1 Bft) O-NO 67 0 min 1 UV-I 151 W/m 11,3 km/h (2 Bft)
08.01.2010 12:50 -3,1 C 86 % 1019,0 hPa 0,0 mm 3,2 km/h (1 Bft) O 90 0 min 1 UV-I 153 W/m 11,3 km/h (2 Bft)
08.01.2010 13:00 -3,0 C 84 % 1019,0 hPa 0,0 mm 4,8 km/h (1 Bft) O-NO 67 10 min 1 UV-I 192 W/m 11,3 km/h (2 Bft)
08.01.2010 13:10 -3,1 C 83 % 1018,8 hPa 0,0 mm 6,4 km/h (2 Bft) O 90 10 min 1 UV-I 220 W/m 20,9 km/h (4 Bft)
08.01.2010 13:20 -3,2 C 82 % 1018,7 hPa 0,0 mm 4,8 km/h (1 Bft) NO 45 10 min 1 UV-I 216 W/m 14,5 km/h (3 Bft)
08.01.2010 13:30 -3,2 C 83 % 1018,5 hPa 0,0 mm 3,2 km/h (1 Bft) O-NO 67 10 min 1 UV-I 274 W/m 9,7 km/h (2 Bft)
08.01.2010 13:40 -3,1 C 82 % 1018,5 hPa 0,0 mm 3,2 km/h (1 Bft) N-NO 22 10 min 1 UV-I 246 W/m 9,7 km/h (2 Bft)
08.01.2010 13:50 -2,9 C 82 % 1018,3 hPa 0,0 mm 3,2 km/h (1 Bft) NO 45 10 min 0 UV-I 241 W/m 11,3 km/h (2 Bft)
08.01.2010 14:00 -2,8 C 82 % 1018,4 hPa 0,0 mm 3,2 km/h (1 Bft) O-NO 67 10 min 0 UV-I 220 W/m 6,4 km/h (2 Bft)
08.01.2010 14:10 -2,8 C 82 % 1018,3 hPa 0,0 mm 3,2 km/h (1 Bft) O-NO 67 10 min 0 UV-I 153 W/m 14,5 km/h (3 Bft)
08.01.2010 14:20 -2,7 C 81 % 1018,4 hPa 0,0 mm 4,8 km/h (1 Bft) NO 45 0 min 0 UV-I 91 W/m 16,1 km/h (3 Bft)
08.01.2010 14:30 -2,8 C 81 % 1018,4 hPa 0,0 mm 6,4 km/h (2 Bft) NO 45 0 min 0 UV-I 88 W/m 16,1 km/h (3 Bft)
08.01.2010 14:40 -2,9 C 80 % 1018,5 hPa 0,0 mm 4,8 km/h (1 Bft) NO 45 0 min 0 UV-I 79 W/m 19,3 km/h (3 Bft)
08.01.2010 14:50 -3,0 C 80 % 1018,6 hPa 0,0 mm 4,8 km/h (1 Bft) NO 45 0 min 0 UV-I 81 W/m 11,3 km/h (2 Bft)
08.01.2010 15:00 -3,2 C 80 % 1018,5 hPa 0,0 mm 3,2 km/h (1 Bft) O-NO 67 0 min 0 UV-I 69 W/m 14,5 km/h (3 Bft)
08.01.2010 15:10 -3,3 C 81 % 1018,6 hPa 0,0 mm 3,2 km/h (1 Bft) NO 45 0 min 0 UV-I 74 W/m 16,1 km/h (3 Bft)
08.01.2010 15:20 -3,3 C 81 % 1018,7 hPa 0,0 mm 3,2 km/h (1 Bft) O-NO 67 0 min 0 UV-I 54 W/m 9,7 km/h (2 Bft)
08.01.2010 15:30 -3,4 C 81 % 1018,8 hPa 0,0 mm 3,2 km/h (1 Bft) O-NO 67 0 min 0 UV-I 37 W/m 11,3 km/h (2 Bft)
08.01.2010 15:40 -3,6 C 81 % 1018,8 hPa 0,0 mm 3,2 km/h (1 Bft) O 90 0 min 0 UV-I 40 W/m 14,5 km/h (3 Bft)
08.01.2010 15:50 -3,6 C 82 % 1019,0 hPa 0,0 mm 4,8 km/h (1 Bft) O 90 0 min 0 UV-I 30 W/m 14,5 km/h (3 Bft)
08.01.2010 16:00 -3,7 C 82 % 1019,1 hPa 0,0 mm 3,2 km/h (1 Bft) O-NO 67 0 min 0 UV-I 19 W/m 11,3 km/h (2 Bft)
08.01.2010 16:10 -3,7 C 82 % 1019,1 hPa 0,0 mm 3,2 km/h (1 Bft) O-NO 67 0 min 0 UV-I 14 W/m 9,7 km/h (2 Bft)
08.01.2010 16:20 -3,8 C 83 % 1019,2 hPa 0,0 mm 3,2 km/h (1 Bft) O 90 10 min 0 UV-I 9 W/m 9,7 km/h (2 Bft)
08.01.2010 16:30 -3,9 C 83 % 1019,2 hPa 0,0 mm 4,8 km/h (1 Bft) O 90 0 min 0 UV-I 0 W/m 14,5 km/h (3 Bft)
08.01.2010 16:40 -4,0 C 83 % 1019,3 hPa 0,0 mm 6,4 km/h (2 Bft) O 90 0 min 0 UV-I 0 W/m 17,7 km/h (3 Bft)
08.01.2010 16:50 -4,1 C 83 % 1019,3 hPa 0,0 mm 4,8 km/h (1 Bft) O-NO 67 0 min 0 UV-I 0 W/m 11,3 km/h (2 Bft)
08.01.2010 17:00 -4,2 C 83 % 1019,4 hPa 0,0 mm 4,8 km/h (1 Bft) O 90 0 min 0 UV-I 0 W/m 16,1 km/h (3 Bft)
08.01.2010 17:10 -4,3 C 84 % 1019,6 hPa 0,0 mm 4,8 km/h (1 Bft) O 90 0 min 0 UV-I 0 W/m 14,5 km/h (3 Bft)
08.01.2010 17:20 -4,4 C 84 % 1019,6 hPa 0,0 mm 6,4 km/h (2 Bft) O-NO 67 0 min 0 UV-I 0 W/m 12,9 km/h (3 Bft)
08.01.2010 17:30 -4,4 C 84 % 1019,5 hPa 0,0 mm 6,4 km/h (2 Bft) O-NO 67 0 min 0 UV-I 0 W/m 16,1 km/h (3 Bft)
08.01.2010 17:40 -4,5 C 84 % 1019,4 hPa 0,0 mm 3,2 km/h (1 Bft) O-NO 67 0 min 0 UV-I 0 W/m 14,5 km/h (3 Bft)
08.01.2010 17:50 -4,5 C 84 % 1019,4 hPa 0,0 mm 1,6 km/h (1 Bft) N-NO 22 0 min 0 UV-I 0 W/m 4,8 km/h (1 Bft)
08.01.2010 18:00 -4,6 C 84 % 1019,4 hPa 0,0 mm 1,6 km/h (1 Bft) N-NO 22 0 min 0 UV-I 0 W/m 11,3 km/h (2 Bft)
08.01.2010 18:10 -4,7 C 84 % 1019,5 hPa 0,0 mm 4,8 km/h (1 Bft) NO 45 0 min 0 UV-I 0 W/m 16,1 km/h (3 Bft)
08.01.2010 18:20 -4,8 C 85 % 1019,5 hPa 0,0 mm 4,8 km/h (1 Bft) NO 45 0 min 0 UV-I 0 W/m 16,1 km/h (3 Bft)
08.01.2010 18:30 -4,8 C 85 % 1019,4 hPa 0,0 mm 4,8 km/h (1 Bft) N-NO 22 0 min 0 UV-I 0 W/m 14,5 km/h (3 Bft)
08.01.2010 18:40 -4,7 C 85 % 1019,4 hPa 0,0 mm 3,2 km/h (1 Bft) N-NO 22 0 min 0 UV-I 0 W/m 17,7 km/h (3 Bft)
08.01.2010 18:50 -4,7 C 86 % 1019,3 hPa 0,0 mm 6,4 km/h (2 Bft) N-NO 22 0 min 0 UV-I 0 W/m 16,1 km/h (3 Bft)
08.01.2010 19:00 -4,7 C 86 % 1019,3 hPa 0,0 mm 4,8 km/h (1 Bft) NO 45 0 min 0 UV-I 0 W/m 17,7 km/h (3 Bft)
08.01.2010 19:10 -4,6 C 86 % 1019,3 hPa 0,0 mm 4,8 km/h (1 Bft) N-NO 22 0 min 0 UV-I 0 W/m 20,9 km/h (4 Bft)
08.01.2010 19:20 -4,6 C 86 % 1019,2 hPa 0,0 mm 6,4 km/h (2 Bft) NO 45 0 min 0 UV-I 0 W/m 25,7 km/h (4 Bft)
08.01.2010 19:30 -4,5 C 86 % 1019,1 hPa 0,0 mm 4,8 km/h (1 Bft) NO 45 0 min 0 UV-I 0 W/m 17,7 km/h (3 Bft)
08.01.2010 19:40 -4,4 C 86 % 1019,0 hPa 0,0 mm 4,8 km/h (1 Bft) NO 45 0 min 0 UV-I 0 W/m 19,3 km/h (3 Bft)
08.01.2010 19:50 -4,4 C 87 % 1018,9 hPa 0,0 mm 6,4 km/h (2 Bft) NO 45 0 min 0 UV-I 0 W/m 17,7 km/h (3 Bft)
08.01.2010 20:00 -4,3 C 87 % 1019,1 hPa 0,0 mm 4,8 km/h (1 Bft) O-NO 67 0 min 0 UV-I 0 W/m 16,1 km/h (3 Bft)
08.01.2010 20:10 -4,3 C 87 % 1019,2 hPa 0,0 mm 4,8 km/h (1 Bft) O-NO 67 0 min 0 UV-I 0 W/m 14,5 km/h (3 Bft)
08.01.2010 20:20 -4,2 C 87 % 1019,1 hPa 0,0 mm 4,8 km/h (1 Bft) O-NO 67 0 min 0 UV-I 0 W/m 24,1 km/h (4 Bft)
08.01.2010 20:30 -4,2 C 87 % 1019,2 hPa 0,0 mm 6,4 km/h (2 Bft) O-NO 67 0 min 0 UV-I 0 W/m 16,1 km/h (3 Bft)
08.01.2010 20:40 -4,2 C 87 % 1019,2 hPa 0,0 mm 4,8 km/h (1 Bft) O-NO 67 0 min 0 UV-I 0 W/m 16,1 km/h (3 Bft)
08.01.2010 20:50 -4,1 C 87 % 1019,2 hPa 0,0 mm 6,4 km/h (2 Bft) O-NO 67 0 min 0 UV-I 0 W/m 22,5 km/h (4 Bft)
08.01.2010 21:00 -4,1 C 87 % 1019,3 hPa 0,0 mm 6,4 km/h (2 Bft) O-NO 67 0 min 0 UV-I 0 W/m 20,9 km/h (4 Bft)
08.01.2010 21:10 -4,1 C 87 % 1019,4 hPa 0,0 mm 6,4 km/h (2 Bft) O 90 0 min 0 UV-I 0 W/m 20,9 km/h (4 Bft)
08.01.2010 21:20 -4,1 C 87 % 1019,4 hPa 0,0 mm 4,8 km/h (1 Bft) O-NO 67 0 min 0 UV-I 0 W/m 22,5 km/h (4 Bft)
08.01.2010 21:30 -4,1 C 87 % 1019,3 hPa 0,0 mm 4,8 km/h (1 Bft) O 90 0 min 0 UV-I 0 W/m 16,1 km/h (3 Bft)
08.01.2010 21:40 -4,1 C 87 % 1019,2 hPa 0,0 mm 3,2 km/h (1 Bft) O-NO 67 0 min 0 UV-I 0 W/m 9,7 km/h (2 Bft)
08.01.2010 21:50 -4,1 C 87 % 1019,2 hPa 0,0 mm 4,8 km/h (1 Bft) O-NO 67 0 min 0 UV-I 0 W/m 17,7 km/h (3 Bft)
08.01.2010 22:00 -4,2 C 86 % 1019,1 hPa 0,0 mm 4,8 km/h (1 Bft) O-NO 67 0 min 0 UV-I 0 W/m 17,7 km/h (3 Bft)
08.01.2010 22:10 -4,2 C 86 % 1019,1 hPa 0,0 mm 6,4 km/h (2 Bft) O-NO 67 0 min 0 UV-I 0 W/m 16,1 km/h (3 Bft)
08.01.2010 22:20 -4,2 C 86 % 1019,1 hPa 0,0 mm 6,4 km/h (2 Bft) O 90 0 min 0 UV-I 0 W/m 20,9 km/h (4 Bft)
08.01.2010 22:30 -4,2 C 86 % 1019,1 hPa 0,0 mm 6,4 km/h (2 Bft) O-NO 67 0 min 0 UV-I 0 W/m 20,9 km/h (4 Bft)
08.01.2010 22:40 -4,2 C 86 % 1019,2 hPa 0,0 mm 4,8 km/h (1 Bft) O 90 0 min 0 UV-I 0 W/m 17,7 km/h (3 Bft)
08.01.2010 22:50 -4,2 C 86 % 1019,1 hPa 0,0 mm 3,2 km/h (1 Bft) NO 45 0 min 0 UV-I 0 W/m 9,7 km/h (2 Bft)
08.01.2010 23:00 -4,2 C 86 % 1019,1 hPa 0,0 mm 4,8 km/h (1 Bft) O-NO 67 0 min 0 UV-I 0 W/m 16,1 km/h (3 Bft)
08.01.2010 23:10 -4,3 C 86 % 1019,1 hPa 0,0 mm 8,0 km/h (2 Bft) O-NO 67 0 min 0 UV-I 0 W/m 19,3 km/h (3 Bft)
08.01.2010 23:20 -4,3 C 85 % 1019,0 hPa 0,0 mm 4,8 km/h (1 Bft) O 90 0 min 0 UV-I 0 W/m 19,3 km/h (3 Bft)
08.01.2010 23:30 -4,3 C 85 % 1018,8 hPa 0,0 mm 4,8 km/h (1 Bft) NO 45 0 min 0 UV-I 0 W/m 14,5 km/h (3 Bft)
08.01.2010 23:40 -4,3 C 85 % 1018,9 hPa 0,0 mm 4,8 km/h (1 Bft) O-NO 67 0 min 0 UV-I 0 W/m 20,9 km/h (4 Bft)
08.01.2010 23:50 -4,3 C 85 % 1018,8 hPa 0,0 mm 4,8 km/h (1 Bft) O-NO 67 0 min 0 UV-I 0 W/m 17,7 km/h (3 Bft)
_ Min-Zeit 09:20 14:40 00:00 - 00:00 - - - - - 00:20
Minimum _ -5,2 C 80 % 1015,6 hPa - 0,0 km/h (0 Bft) - - - - - 0,0 km/h (0 Bft)
_ Max-Zeit 14:10 00:00 17:10 00:00 23:10 - - 12:20 12:20 13:30 19:20
Maximum _ -2,7 C 89 % 1019,6 hPa 0,0 mm 8,0 km/h
O-NO (2 Bft)
- - 10 min 1 UV-I 274 W/m 25,7 km/h
N-NW (4 Bft)
Durchschnitt _ -3,9 C 87 % 1018,3 hPa #0,0 mm 2,6 km/h (1 Bft) O-NO - #1:50 h 1 UV-I 93 W/m 9,2 km/h (2 Bft)